{"data":{"norad_id":45144,"epoch":"2026-09-20T02:46:27.588576Z","epoch_age_seconds":51463,"freshness":"FRESH","line1":"1 45144U 20008P   26263.11559709 -.00000635  00000+0 -18565-2 0  9996","line2":"2 45144  87.8922  17.3988 0001897 104.8974 255.2364 13.10371194320798","mean_motion":13.10371194,"eccentricity":0.0001897,"inclination_deg":87.8922,"raan_deg":17.3988,"arg_perigee_deg":104.8974,"mean_anomaly_deg":255.2364,"bstar":-0.0018565,"rev_number":32079,"period_min":109.89252561362,"perigee_km":1220.2817326066,"apogee_km":1223.1651196522,"semimajor_km":7599.8604261294,"source":"CELESTRAK","updated_at":"2026-09-20T09:00:44.547382Z"}}